User: anonymous   Login
Location: Bieg
(49.3499°N, 10.3835°E)
Time: 13:16:17
(UTC+00:00)
Language:

Cosmos 1346 Rocket - Orbit

View from above orbital plane
View from above orbital plane
View from above satellite
View from above satellite

Ground track
Ground track

The orbit data is extracted from the following two-line orbital elements,

1 13121U 82027B   24205.93438021  .00008733  00000-0  43237-3 0  9993
2 13121  81.1931  14.1253 0011136 120.3161 239.9172 15.17617522308152
Epoch (UTC): 23 July 2024 22:25:30
Eccentricity: 0.0011136
inclination: 81.1931°
perigee height: 505 km
apogee height: 521 km
right ascension of ascending node: 14.1253°
argument of perigee: 120.3161°
revolutions per day: 15.17617522
mean anomaly at epoch: 239.9172°
orbit number at epoch: 30815

The dashed part of the orbit path shows where the satellite is in the earth's shadow,  

DLR